User: anonymous   Login
Location: Fishcreek Rd Observing Site
(41.1865°N, 81.4271°W)
Time: 12:48:18
(UTC-04:00)
Language:

Iridium 75 - Orbit

View from above orbital plane
View from above orbital plane
View from above satellite
View from above satellite

Ground track
Ground track

The orbit data is extracted from the following two-line orbital elements,

1 25346U 98032E   16180.55453255  .00000023  00000-0  10031-5 0  9997
2 25346  86.3954  11.9461 0002249  89.0460 323.4344 14.34215571948987
Epoch (UTC): 28 June 2016 13:18:31
Eccentricity: 0.0002249
inclination: 86.3954°
perigee height: 776 km
apogee height: 779 km
right ascension of ascending node: 11.9461°
argument of perigee: 89.0460°
revolutions per day: 14.34215571
mean anomaly at epoch: 323.4344°
orbit number at epoch: 94898

The dashed part of the orbit path shows where the satellite is in the earth's shadow,  

DLR